| time (UTC) | temp F | wind direction | speed MPH | gust MPH | rain 1hr in | rain 24hr in | rain mn in | humidity % | barometer mb |
| 20260901182634 | 76 | 191 | 0.0 | 0.0 | 0.00 | 0.78 | 0.79 | 93 | 1013.6 |
| 20260901181635 | 76 | 162 | 0.0 | 0.0 | 0.00 | 0.78 | 0.79 | 95 | 1013.7 |
| 20260901180658 | 76 | 163 | 0.0 | 0.0 | 0.00 | 0.78 | 0.79 | 97 | 1013.7 |
| 20260901175640 | 75 | 162 | 0.0 | 0.0 | 0.00 | 0.78 | 0.79 | 97 | 1013.8 |
| 20260901174648 | 75 | 163 | 0.0 | 0.0 | 0.00 | 0.78 | 0.79 | 97 | 1013.7 |
| 20260901173655 | 74 | 121 | 0.0 | 0.0 | 0.00 | 0.78 | 0.79 | 98 | 1013.6 |
| 20260901171441 | 74 | 121 | 0.0 | 0.0 | 0.00 | 0.78 | 0.79 | 98 | 1013.7 |
| 20260901170504 | 74 | 122 | 0.0 | 0.0 | 0.00 | 0.78 | 0.79 | 98 | 1013.7 |
| 20260901165440 | 74 | 97 | 0.0 | 0.0 | 0.00 | 0.78 | 0.79 | 98 | 1013.7 |
| 20260901164447 | 74 | 98 | 0.0 | 0.0 | 0.00 | 0.78 | 0.79 | 99 | 1013.7 |
| 20260901163444 | 73 | 98 | 0.0 | 0.0 | 0.00 | 0.78 | 0.79 | 99 | 1014.0 |
| 20260901162503 | 73 | 98 | 0.0 | 0.0 | 0.04 | 0.78 | 0.79 | 99 | 1014.6 |
| 20260901161446 | 73 | 98 | 0.0 | 0.0 | 0.06 | 0.78 | 0.79 | 99 | 1014.7 |
| 20260901160416 | 72 | 98 | 0.0 | 0.0 | 0.13 | 0.78 | 0.77 | 99 | 1014.8 |
| 20260901154242 | 72 | 148 | 0.0 | 0.0 | 0.10 | 0.73 | 0.74 | 99 | 1015.0 |
| 20260901153217 | 72 | 148 | 0.0 | 0.0 | 0.00 | 0.72 | 0.72 | 99 | 1014.9 |
| 20260901152151 | 72 | 148 | 0.0 | 0.0 | 0.00 | 0.72 | 0.72 | 99 | 1014.8 |
| 20260901151150 | 72 | 138 | 0.0 | 0.0 | 0.00 | 0.72 | 0.72 | 99 | 1014.6 |
| 20260901150127 | 72 | 138 | 0.0 | 0.0 | 0.00 | 0.72 | 0.72 | 99 | 1014.9 |
| 20260901145107 | 72 | 138 | 0.0 | 0.0 | 0.00 | 0.72 | 0.72 | 99 | 1014.8 |
| 20260901144033 | 72 | 138 | 0.0 | 0.0 | 0.05 | 0.71 | 0.71 | 99 | 1014.9 |
| 20260901143026 | 72 | 138 | 0.0 | 0.0 | 0.06 | 0.71 | 0.71 | 99 | 1015.0 |
| 20260901141959 | 72 | 138 | 0.0 | 0.0 | 0.19 | 0.68 | 0.70 | 99 | 1015.2 |
| 20260901140939 | 71 | 138 | 0.0 | 0.0 | 0.00 | 0.65 | 0.67 | 99 | 1015.3 |
| 20260901134836 | 71 | 136 | 0.0 | 0.0 | 0.13 | 0.65 | 0.66 | 99 | 1015.2 |
| 20260901132724 | 71 | 135 | 0.0 | 0.0 | 0.00 | 0.62 | 0.62 | 99 | 1015.2 |
| 20260901131720 | 71 | 136 | 0.0 | 0.0 | 0.00 | 0.62 | 0.62 | 99 | 1015.2 |
| 20260901130705 | 71 | 135 | 0.0 | 0.0 | 0.00 | 0.62 | 0.62 | 99 | 1015.0 |
| 20260901125704 | 71 | 136 | 0.0 | 0.0 | 0.00 | 0.62 | 0.62 | 99 | 1015.0 |
| 20260901124634 | 71 | 135 | 0.0 | 0.0 | 0.00 | 0.62 | 0.62 | 99 | 1015.1 |
| 20260901123642 | 71 | 126 | 0.0 | 0.0 | 0.00 | 0.62 | 0.62 | 99 | 1015.1 |
| 20260901122707 | 71 | 125 | 0.0 | 0.0 | 0.00 | 0.62 | 0.62 | 99 | 1015.1 |
| 20260901121729 | 71 | 125 | 0.0 | 0.0 | 0.00 | 0.62 | 0.62 | 99 | 1015.1 |
| 20260901120738 | 70 | 125 | 0.0 | 0.0 | 0.00 | 0.62 | 0.62 | 99 | 1015.1 |
| 20260901115752 | 70 | 125 | 0.0 | 0.0 | 0.00 | 0.61 | 0.62 | 99 | 1015.5 |
| 20260901114801 | 70 | 125 | 0.0 | 0.0 | 0.00 | 0.61 | 0.61 | 99 | 1015.4 |
| 20260901113816 | 70 | 126 | 0.0 | 0.0 | 0.00 | 0.61 | 0.61 | 99 | 1015.2 |
| 20260901112838 | 70 | 125 | 0.0 | 0.0 | 0.00 | 0.61 | 0.61 | 99 | 1014.9 |
| 20260901111901 | 70 | 125 | 0.0 | 0.0 | 0.00 | 0.61 | 0.61 | 99 | 1015.1 |
| 20260901110827 | 70 | 125 | 0.0 | 0.0 | 0.00 | 0.61 | 0.61 | 99 | 1015.2 |
| 20260901105811 | 70 | 125 | 0.0 | 0.0 | 0.00 | 0.61 | 0.61 | 99 | 1015.4 |
| 20260901075733 | 68 | 126 | 0.0 | 0.0 | 0.00 | 0.61 | 0.61 | 98 | 1015.8 |
| 20260901074732 | 68 | 125 | 0.0 | 0.0 | 0.00 | 0.61 | 0.61 | 98 | 1015.8 |
| 20260901073735 | 68 | 125 | 0.0 | 0.0 | 0.04 | 0.61 | 0.61 | 98 | 1015.9 |
| 20260901072754 | 68 | 125 | 0.0 | 0.0 | 0.06 | 0.61 | 0.61 | 98 | 1016.0 |
| 20260901071813 | 68 | 126 | 0.0 | 0.0 | 0.09 | 0.59 | 0.60 | 98 | 1016.1 |
| 20260901065708 | 68 | 125 | 0.0 | 0.0 | 0.08 | 0.58 | 0.57 | 98 | 1016.1 |
| 20260901064713 | 68 | 125 | 0.0 | 0.0 | 0.16 | 0.56 | 0.57 | 97 | 1016.1 |
| 20260901063651 | 68 | 126 | 0.0 | 0.0 | 0.13 | 0.53 | 0.54 | 97 | 1016.1 |
| 20260901060328 | 70 | 125 | 0.0 | 0.0 | 0.97 | 0.29 | 0.32 | 97 | 1016.3 |
| 20260901055259 | 70 | 125 | 0.0 | 0.0 | 0.38 | 0.21 | 0.21 | 97 | 1016.4 |
| 20260901054240 | 70 | 125 | 0.0 | 0.0 | 0.13 | 0.14 | 0.16 | 97 | 1016.5 |
| 20260901053304 | 70 | 126 | 0.0 | 0.0 | 0.15 | 0.13 | 0.13 | 97 | 1016.5 |
| 20260901052241 | 70 | 125 | 0.0 | 0.0 | 0.16 | 0.09 | 0.10 | 96 | 1016.5 |
| 20260901051233 | 70 | 125 | 0.0 | 0.0 | 0.10 | 0.06 | 0.08 | 96 | 1016.6 |
| 20260901050209 | 70 | 125 | 0.0 | 0.0 | 0.18 | 0.04 | 0.05 | 96 | 1016.7 |
| 20260901045220 | 71 | 124 | 0.0 | 0.0 | 0.19 | 0.01 | 0.02 | 95 | 1016.7 |
| 20260901041833 | 71 | 124 | 0.0 | 0.0 | 0.00 | 0.00 | 0.00 | 94 | 1016.7 |
| 20260901040856 | 71 | 124 | 0.0 | 0.0 | 0.00 | 0.00 | 0.00 | 94 | 1016.7 |
| 20260901035837 | 71 | 124 | 0.0 | 0.0 | 0.00 | 0.00 | 0.00 | 93 | 1016.7 |
| 20260901034809 | 71 | 124 | 0.0 | 0.0 | 0.00 | 0.00 | 0.00 | 92 | 1016.6 |
| 20260901033831 | 71 | 124 | 0.0 | 0.0 | 0.00 | 0.00 | 0.00 | 92 | 1016.8 |
| 20260901032842 | 71 | 124 | 0.0 | 0.0 | 0.00 | 0.00 | 0.00 | 91 | 1017.0 |
| 20260901031820 | 71 | 124 | 0.0 | 0.0 | 0.00 | 0.00 | 0.00 | 91 | 1017.1 |
| 20260901030828 | 71 | 124 | 0.0 | 0.0 | 0.00 | 0.00 | 0.00 | 90 | 1017.1 |
| 20260901025755 | 72 | 124 | 0.0 | 0.0 | 0.00 | 0.00 | 0.00 | 90 | 1017.3 |
| 20260901024732 | 72 | 124 | 0.0 | 0.0 | 0.00 | 0.00 | 0.00 | 90 | 1017.3 |
| 20260901023727 | 72 | 124 | 0.0 | 0.0 | 0.00 | 0.00 | 0.00 | 90 | 1017.4 |
| 20260901021521 | 72 | 124 | 0.0 | 0.0 | 0.00 | 0.00 | 0.00 | 89 | 1017.4 |
| 20260901020521 | 72 | 124 | 0.0 | 0.0 | 0.00 | 0.00 | 0.00 | 89 | 1017.5 |
| 20260901015455 | 72 | 123 | 0.0 | 0.0 | 0.00 | 0.00 | 0.00 | 89 | 1017.5 |
| 20260901014427 | 72 | 122 | 0.0 | 0.0 | 0.00 | 0.02 | 0.00 | 89 | 1017.4 |
| 20260901013443 | 72 | 162 | 0.0 | 0.0 | 0.00 | 0.02 | 0.00 | 89 | 1017.5 |
| 20260901012439 | 72 | 162 | 0.0 | 0.0 | 0.00 | 0.02 | 0.00 | 89 | 1017.6 |
| 20260901011408 | 72 | 162 | 0.0 | 0.0 | 0.00 | 0.02 | 0.00 | 88 | 1017.6 |
| 20260901010338 | 72 | 162 | 0.0 | 0.0 | 0.00 | 0.03 | 0.00 | 87 | 1017.5 |
| 20260901005325 | 72 | 162 | 0.0 | 0.0 | 0.00 | 0.04 | 0.00 | 87 | 1017.5 |
| 20260901004316 | 72 | 162 | 0.0 | 0.0 | 0.00 | 0.05 | 0.00 | 87 | 1017.5 |
| 20260901003305 | 72 | 166 | 0.0 | 0.0 | 0.00 | 0.05 | 0.00 | 87 | 1017.4 |
| 20260901001152 | 72 | 123 | 0.0 | 0.0 | 0.00 | 0.06 | 0.00 | 87 | 1017.3 |
| 20260831235041 | 72 | 165 | 0.0 | 0.0 | 0.00 | 0.06 | 0.00 | 87 | 1017.3 |
| 20260831232916 | 72 | 165 | 0.0 | 0.0 | 0.00 | 0.06 | 0.00 | 87 | 1017.5 |
| 20260831231856 | 72 | 165 | 0.0 | 0.0 | 0.00 | 0.06 | 0.00 | 87 | 1017.5 |
| 20260831230822 | 73 | 165 | 0.0 | 0.0 | 0.00 | 0.06 | 0.00 | 87 | 1017.6 |
| 20260831225843 | 73 | 165 | 0.0 | 0.0 | 0.00 | 0.06 | 0.00 | 87 | 1017.6 |
| 20260831224902 | 73 | 165 | 0.0 | 0.0 | 0.00 | 0.06 | 0.00 | 86 | 1017.7 |
| 20260831223852 | 73 | 165 | 0.0 | 0.0 | 0.00 | 0.06 | 0.00 | 85 | 1017.6 |
| 20260831222912 | 74 | 165 | 0.0 | 0.0 | 0.00 | 0.06 | 0.00 | 85 | 1017.7 |
| 20260831220748 | 74 | 133 | 0.0 | 0.0 | 0.00 | 0.06 | 0.00 | 84 | 1017.7 |
| 20260831215810 | 74 | 132 | 0.0 | 0.0 | 0.00 | 0.06 | 0.00 | 82 | 1017.7 |
| 20260831214757 | 75 | 121 | 0.0 | 0.0 | 0.00 | 0.06 | 0.00 | 81 | 1017.8 |
| 20260831213734 | 75 | 120 | 0.0 | 0.0 | 0.00 | 0.06 | 0.00 | 80 | 1017.7 |
| 20260831212735 | 75 | 132 | 0.0 | 0.0 | 0.00 | 0.06 | 0.00 | 79 | 1017.7 |
| 20260831211747 | 76 | 86 | 0.0 | 0.0 | 0.00 | 0.06 | 0.00 | 79 | 1017.6 |
| 20260831205624 | 77 | 86 | 0.0 | 0.0 | 0.00 | 0.06 | 0.00 | 77 | 1017.7 |
| 20260831204635 | 77 | 54 | 0.0 | 2.0 | 0.00 | 0.06 | 0.00 | 75 | 1017.7 |
| 20260831203621 | 77 | 110 | 0.0 | 0.0 | 0.00 | 0.06 | 0.00 | 75 | 1017.6 |
| 20260831202635 | 78 | 354 | 0.0 | 0.0 | 0.00 | 0.06 | 0.00 | 75 | 1017.7 |
| 20260831201628 | 78 | 354 | 0.0 | 0.0 | 0.00 | 0.06 | 0.00 | 75 | 1017.8 |
| 20260831200651 | 78 | 354 | 0.0 | 0.0 | 0.00 | 0.06 | 0.00 | 74 | 1017.9 |
| 20260831195712 | 79 | 354 | 0.0 | 0.0 | 0.00 | 0.06 | 0.00 | 71 | 1018.1 |
| 20260831194653 | 79 | 218 | 0.0 | 2.0 | 0.00 | 0.06 | 0.00 | 69 | 1018.1 |
| 20260831193642 | 80 | 155 | 0.0 | 0.0 | 0.00 | 0.06 | 0.00 | 69 | 1018.1 |
| 20260831192656 | 80 | 150 | 0.0 | 0.0 | 0.00 | 0.06 | 0.00 | 67 | 1018.1 |
| 20260831191627 | 81 | 78 | 0.0 | 7.0 | 0.00 | 0.06 | 0.00 | 66 | 1018.4 |
| 20260831190640 | 81 | 104 | 0.0 | 2.0 | 0.00 | 0.06 | 0.00 | 67 | 1018.6 |
| 20260831185645 | 82 | 122 | 0.0 | 1.0 | 0.00 | 0.06 | 0.00 | 66 | 1018.5 |
| 20260831184645 | 81 | 57 | 0.0 | 2.0 | 0.00 | 0.06 | 0.00 | 64 | 1018.4 |